Time,TemperatureF,DewpointF,PressureIn,WindDirection,WindDirectionDegrees,WindSpeedMPH,WindSpeedGustMPH,Humidity,HourlyPrecipIn,Conditions,Clouds,dailyrainin,SolarRadiationWatts/m^2,SoftwareType,DateUTC
2013-03-17 00:12:00,71.0,41.0,-100.00,South,185,2.0,7.0,34,0.00,,,0.00,0.000000,,2013-03-17 07:12:00,
2013-03-17 00:22:00,71.0,41.0,-100.00,South,185,2.0,7.0,34,0.00,,,0.00,0.000000,,2013-03-17 07:22:00,
2013-03-17 00:32:00,71.0,41.0,-100.00,South,185,2.0,7.0,34,0.00,,,0.00,0.000000,,2013-03-17 07:32:00,
2013-03-17 00:42:00,71.0,41.0,-100.00,South,185,2.0,7.0,34,0.00,,,0.00,0.000000,,2013-03-17 07:42:00,
2013-03-17 00:52:00,68.0,39.0,-100.00,SW,229,3.0,9.0,34,0.00,,,0.00,0.000000,,2013-03-17 07:52:00,
2013-03-17 01:22:00,68.0,39.0,-100.00,SW,229,3.0,9.0,34,0.00,,,0.00,0.000000,,2013-03-17 08:22:00,
2013-03-17 01:32:00,68.0,39.0,-100.00,SW,229,3.0,9.0,34,0.00,,,0.00,0.000000,,2013-03-17 08:32:00,
2013-03-17 01:42:00,68.0,39.0,-100.00,SW,229,3.0,9.0,34,0.00,,,0.00,0.000000,,2013-03-17 08:42:00,
2013-03-17 01:52:00,68.0,42.0,-100.00,South,170,5.0,11.0,39,0.00,,,0.00,0.000000,,2013-03-17 08:52:00,
2013-03-17 02:22:00,68.0,42.0,-100.00,South,170,5.0,11.0,39,0.00,,,0.00,0.000000,,2013-03-17 09:22:00,
2013-03-17 02:32:00,68.0,42.0,-100.00,South,170,5.0,11.0,39,0.00,,,0.00,0.000000,,2013-03-17 09:32:00,
2013-03-17 02:42:00,68.0,42.0,-100.00,South,170,5.0,11.0,39,0.00,,,0.00,0.000000,,2013-03-17 09:42:00,
2013-03-17 02:52:00,66.0,37.0,-100.00,SSW,208,1.0,8.0,34,0.00,,,0.00,0.000000,,2013-03-17 09:52:00,
2013-03-17 03:13:00,66.0,37.0,-100.00,SSW,208,1.0,8.0,34,0.00,,,0.00,0.000000,,2013-03-17 10:13:00,
2013-03-17 03:23:00,66.0,37.0,-100.00,SSW,208,1.0,8.0,34,0.00,,,0.00,0.000000,,2013-03-17 10:23:00,
2013-03-17 03:33:00,66.0,37.0,-100.00,SSW,208,1.0,8.0,34,0.00,,,0.00,0.000000,,2013-03-17 10:33:00,
2013-03-17 03:42:00,66.0,37.0,-100.00,SSW,208,1.0,8.0,34,0.00,,,0.00,0.000000,,2013-03-17 10:42:00,
2013-03-17 04:22:00,67.0,39.0,-100.00,ESE,121,2.0,8.0,36,0.00,,,0.00,0.000000,,2013-03-17 11:22:00,
2013-03-17 04:32:00,67.0,39.0,-100.00,ESE,121,2.0,8.0,36,0.00,,,0.00,0.000000,,2013-03-17 11:32:00,
2013-03-17 04:42:00,67.0,39.0,-100.00,ESE,121,2.0,8.0,36,0.00,,,0.00,0.000000,,2013-03-17 11:42:00,
2013-03-17 04:51:00,67.0,39.0,-100.00,ESE,121,2.0,8.0,36,0.00,,,0.00,0.000000,,2013-03-17 11:51:00,
2013-03-17 05:22:00,65.0,39.0,-100.00,East,101,1.0,8.0,38,0.00,,,0.00,0.000000,,2013-03-17 12:22:00,
2013-03-17 05:32:00,65.0,39.0,-100.00,East,101,1.0,8.0,38,0.00,,,0.00,0.000000,,2013-03-17 12:32:00,
2013-03-17 05:42:00,65.0,39.0,-100.00,East,101,1.0,8.0,38,0.00,,,0.00,0.000000,,2013-03-17 12:42:00,
2013-03-17 05:51:00,65.0,39.0,-100.00,East,101,1.0,8.0,38,0.00,,,0.00,0.000000,,2013-03-17 12:51:00,
2013-03-17 05:52:00,63.0,39.0,-100.00,WNW,285,0.0,6.0,41,0.00,,,0.00,0.000000,,2013-03-17 12:52:00,
2013-03-17 06:12:00,63.0,39.0,-100.00,WNW,285,0.0,6.0,41,0.00,,,0.00,0.000000,,2013-03-17 13:12:00,
2013-03-17 06:22:00,63.0,39.0,-100.00,WNW,285,0.0,6.0,41,0.00,,,0.00,0.000000,,2013-03-17 13:22:00,
2013-03-17 06:32:00,63.0,39.0,-100.00,WNW,285,0.0,6.0,41,0.00,,,0.00,0.000000,,2013-03-17 13:32:00,
2013-03-17 06:42:00,63.0,39.0,-100.00,WNW,285,0.0,6.0,41,0.00,,,0.00,0.000000,,2013-03-17 13:42:00,
2013-03-17 06:52:00,62.0,41.0,-100.00,SSW,210,4.0,7.0,46,0.00,,,0.00,0.000000,,2013-03-17 13:52:00,
2013-03-17 07:22:00,62.0,41.0,-100.00,SSW,210,4.0,7.0,46,0.00,,,0.00,0.000000,,2013-03-17 14:22:00,
2013-03-17 07:32:00,62.0,41.0,-100.00,SSW,210,4.0,7.0,46,0.00,,,0.00,0.000000,,2013-03-17 14:32:00,
2013-03-17 07:42:00,62.0,41.0,-100.00,SSW,210,4.0,7.0,46,0.00,,,0.00,0.000000,,2013-03-17 14:42:00,
2013-03-17 07:52:00,65.0,41.0,-100.00,NE,34,3.0,12.0,41,0.00,,,0.00,33.000000,,2013-03-17 14:52:00,
2013-03-17 08:12:00,65.0,41.0,-100.00,NE,34,3.0,12.0,41,0.00,,,0.00,33.000000,,2013-03-17 15:12:00,
2013-03-17 08:23:00,65.0,41.0,-100.00,NE,34,3.0,12.0,41,0.00,,,0.00,33.000000,,2013-03-17 15:23:00,
2013-03-17 08:32:00,65.0,41.0,-100.00,NE,34,3.0,12.0,41,0.00,,,0.00,33.000000,,2013-03-17 15:32:00,
2013-03-17 08:42:00,65.0,41.0,-100.00,NE,34,3.0,12.0,41,0.00,,,0.00,33.000000,,2013-03-17 15:42:00,
2013-03-17 08:52:00,71.0,39.0,-100.00,ENE,76,3.0,8.0,31,0.00,,,0.00,261.000000,,2013-03-17 15:52:00,
2013-03-17 09:12:00,71.0,39.0,-100.00,ENE,76,3.0,8.0,31,0.00,,,0.00,261.000000,,2013-03-17 16:12:00,
2013-03-17 09:22:00,71.0,39.0,-100.00,ENE,76,3.0,8.0,31,0.00,,,0.00,261.000000,,2013-03-17 16:22:00,
2013-03-17 09:33:00,71.0,39.0,-100.00,ENE,76,3.0,8.0,31,0.00,,,0.00,261.000000,,2013-03-17 16:33:00,
2013-03-17 09:42:00,71.0,39.0,-100.00,ENE,76,3.0,8.0,31,0.00,,,0.00,261.000000,,2013-03-17 16:42:00,
2013-03-17 09:52:00,78.0,38.0,-100.00,East,87,2.0,5.0,24,0.00,,,0.00,549.000000,,2013-03-17 16:52:00,
2013-03-17 10:12:00,78.0,38.0,-100.00,East,87,2.0,5.0,24,0.00,,,0.00,549.000000,,2013-03-17 17:12:00,
2013-03-17 10:22:00,78.0,38.0,-100.00,East,87,2.0,5.0,24,0.00,,,0.00,549.000000,,2013-03-17 17:22:00,
2013-03-17 10:42:00,78.0,38.0,-100.00,East,87,2.0,5.0,24,0.00,,,0.00,549.000000,,2013-03-17 17:42:00,
2013-03-17 10:52:00,82.0,34.0,-100.00,NNE,27,1.0,7.0,18,0.00,,,0.00,807.000000,,2013-03-17 17:52:00,
2013-03-17 11:22:00,82.0,34.0,-100.00,NNE,27,1.0,7.0,18,0.00,,,0.00,807.000000,,2013-03-17 18:22:00,
2013-03-17 11:32:00,82.0,34.0,-100.00,NNE,27,1.0,7.0,18,0.00,,,0.00,807.000000,,2013-03-17 18:32:00,
2013-03-17 11:42:00,82.0,34.0,-100.00,NNE,27,1.0,7.0,18,0.00,,,0.00,807.000000,,2013-03-17 18:42:00,
2013-03-17 11:52:00,88.0,36.0,-100.00,ENE,62,2.0,7.0,16,0.00,,,0.00,973.000000,,2013-03-17 18:52:00,
2013-03-17 12:22:00,88.0,36.0,-100.00,ENE,62,2.0,7.0,16,0.00,,,0.00,973.000000,,2013-03-17 19:22:00,
2013-03-17 12:32:00,88.0,36.0,-100.00,ENE,62,2.0,7.0,16,0.00,,,0.00,973.000000,,2013-03-17 19:32:00,
2013-03-17 12:41:00,88.0,36.0,-100.00,ENE,62,2.0,7.0,16,0.00,,,0.00,973.000000,,2013-03-17 19:41:00,
2013-03-17 13:12:00,88.0,19.0,-100.00,SSE,152,3.0,8.0,8,0.00,,,0.00,1049.000000,,2013-03-17 20:12:00,
2013-03-17 13:22:00,88.0,19.0,-100.00,SSE,152,3.0,8.0,8,0.00,,,0.00,1049.000000,,2013-03-17 20:22:00,
2013-03-17 13:32:00,88.0,19.0,-100.00,SSE,152,3.0,8.0,8,0.00,,,0.00,1049.000000,,2013-03-17 20:32:00,
2013-03-17 13:52:00,90.0,21.0,-100.00,North,354,4.0,10.0,8,0.00,,,0.00,1091.000000,,2013-03-17 20:52:00,
2013-03-17 14:12:00,90.0,21.0,-100.00,North,354,4.0,10.0,8,0.00,,,0.00,1091.000000,,2013-03-17 21:12:00,
2013-03-17 14:22:00,90.0,21.0,-100.00,North,354,4.0,10.0,8,0.00,,,0.00,1091.000000,,2013-03-17 21:22:00,
2013-03-17 14:33:00,90.0,21.0,-100.00,North,354,4.0,10.0,8,0.00,,,0.00,1091.000000,,2013-03-17 21:33:00,
2013-03-17 14:42:00,90.0,21.0,-100.00,North,354,4.0,10.0,8,0.00,,,0.00,1091.000000,,2013-03-17 21:42:00,
2013-03-17 14:52:00,89.0,20.0,-100.00,ENE,62,5.0,10.0,8,0.00,,,0.00,986.000000,,2013-03-17 21:52:00,
2013-03-17 15:12:00,89.0,20.0,-100.00,ENE,62,5.0,10.0,8,0.00,,,0.00,986.000000,,2013-03-17 22:12:00,
2013-03-17 15:23:00,89.0,20.0,-100.00,ENE,62,5.0,10.0,8,0.00,,,0.00,986.000000,,2013-03-17 22:23:00,
2013-03-17 15:33:00,89.0,20.0,-100.00,ENE,62,5.0,10.0,8,0.00,,,0.00,986.000000,,2013-03-17 22:33:00,
2013-03-17 15:42:00,89.0,20.0,-100.00,ENE,62,5.0,10.0,8,0.00,,,0.00,986.000000,,2013-03-17 22:42:00,
2013-03-17 15:52:00,92.0,28.0,-100.00,North,353,2.0,11.0,10,0.00,,,0.00,740.000000,,2013-03-17 22:52:00,
2013-03-17 16:22:00,92.0,28.0,-100.00,North,353,2.0,11.0,10,0.00,,,0.00,740.000000,,2013-03-17 23:22:00,
2013-03-17 16:32:00,92.0,28.0,-100.00,North,353,2.0,11.0,10,0.00,,,0.00,740.000000,,2013-03-17 23:32:00,
2013-03-17 16:42:00,92.0,28.0,-100.00,North,353,2.0,11.0,10,0.00,,,0.00,740.000000,,2013-03-17 23:42:00,
2013-03-17 16:52:00,92.0,30.0,-100.00,NE,42,4.0,12.0,11,0.00,,,0.00,607.000000,,2013-03-17 23:52:00,
2013-03-17 17:12:00,92.0,30.0,-100.00,NE,42,4.0,12.0,11,0.00,,,0.00,607.000000,,2013-03-18 00:12:00,
2013-03-17 17:22:00,92.0,30.0,-100.00,NE,42,4.0,12.0,11,0.00,,,0.00,607.000000,,2013-03-18 00:22:00,
2013-03-17 17:32:00,92.0,30.0,-100.00,NE,42,4.0,12.0,11,0.00,,,0.00,607.000000,,2013-03-18 00:32:00,
2013-03-17 17:42:00,92.0,30.0,-100.00,NE,42,4.0,12.0,11,0.00,,,0.00,607.000000,,2013-03-18 00:42:00,
2013-03-17 17:52:00,88.0,29.0,-100.00,North,2,5.0,11.0,12,0.00,,,0.00,330.000000,,2013-03-18 00:52:00,
2013-03-17 18:12:00,88.0,29.0,-100.00,North,2,5.0,11.0,12,0.00,,,0.00,330.000000,,2013-03-18 01:12:00,
2013-03-17 18:22:00,88.0,29.0,-100.00,North,2,5.0,11.0,12,0.00,,,0.00,330.000000,,2013-03-18 01:22:00,
2013-03-17 18:32:00,88.0,29.0,-100.00,North,2,5.0,11.0,12,0.00,,,0.00,330.000000,,2013-03-18 01:32:00,
2013-03-17 18:42:00,88.0,29.0,-100.00,North,2,5.0,11.0,12,0.00,,,0.00,330.000000,,2013-03-18 01:42:00,
2013-03-17 18:52:00,82.0,33.0,-100.00,North,353,4.0,8.0,17,0.00,,,0.00,26.000000,,2013-03-18 01:52:00,
2013-03-17 19:12:00,82.0,33.0,-100.00,North,353,4.0,8.0,17,0.00,,,0.00,26.000000,,2013-03-18 02:12:00,
2013-03-17 19:22:00,82.0,33.0,-100.00,North,353,4.0,8.0,17,0.00,,,0.00,26.000000,,2013-03-18 02:22:00,
2013-03-17 19:32:00,82.0,33.0,-100.00,North,353,4.0,8.0,17,0.00,,,0.00,26.000000,,2013-03-18 02:32:00,
2013-03-17 19:42:00,82.0,33.0,-100.00,North,353,4.0,8.0,17,0.00,,,0.00,26.000000,,2013-03-18 02:42:00,
2013-03-17 19:52:00,77.0,37.0,-100.00,WSW,258,0.0,8.0,24,0.00,,,0.00,0.000000,,2013-03-18 02:52:00,
2013-03-17 20:11:00,77.0,37.0,-100.00,WSW,258,0.0,8.0,24,0.00,,,0.00,0.000000,,2013-03-18 03:11:00,
2013-03-17 20:22:00,77.0,37.0,-100.00,WSW,258,0.0,8.0,24,0.00,,,0.00,0.000000,,2013-03-18 03:22:00,
2013-03-17 20:32:00,77.0,37.0,-100.00,WSW,258,0.0,8.0,24,0.00,,,0.00,0.000000,,2013-03-18 03:32:00,
2013-03-17 20:42:00,77.0,37.0,-100.00,WSW,258,0.0,8.0,24,0.00,,,0.00,0.000000,,2013-03-18 03:42:00,
2013-03-17 20:52:00,75.0,37.0,-100.00,South,178,2.0,5.0,25,0.00,,,0.00,0.000000,,2013-03-18 03:52:00,
2013-03-17 21:13:00,75.0,37.0,-100.00,South,178,2.0,5.0,25,0.00,,,0.00,0.000000,,2013-03-18 04:13:00,
2013-03-17 21:22:00,75.0,37.0,-100.00,South,178,2.0,5.0,25,0.00,,,0.00,0.000000,,2013-03-18 04:22:00,
2013-03-17 21:33:00,75.0,37.0,-100.00,South,178,2.0,5.0,25,0.00,,,0.00,0.000000,,2013-03-18 04:33:00,
2013-03-17 21:42:00,75.0,37.0,-100.00,South,178,2.0,5.0,25,0.00,,,0.00,0.000000,,2013-03-18 04:42:00,
2013-03-17 21:52:00,73.0,38.0,-100.00,SSE,150,0.0,5.0,28,0.00,,,0.00,0.000000,,2013-03-18 04:52:00,
2013-03-17 22:22:00,73.0,38.0,-100.00,SSE,150,0.0,5.0,28,0.00,,,0.00,0.000000,,2013-03-18 05:22:00,
2013-03-17 22:32:00,73.0,38.0,-100.00,SSE,150,0.0,5.0,28,0.00,,,0.00,0.000000,,2013-03-18 05:32:00,
2013-03-17 22:42:00,73.0,38.0,-100.00,SSE,150,0.0,5.0,28,0.00,,,0.00,0.000000,,2013-03-18 05:42:00,
2013-03-17 22:52:00,70.0,44.0,-100.00,SE,139,0.0,4.0,39,0.00,,,0.00,0.000000,,2013-03-18 05:52:00,
2013-03-17 23:22:00,70.0,44.0,-100.00,SE,139,0.0,4.0,39,0.00,,,0.00,0.000000,,2013-03-18 06:22:00,
2013-03-17 23:32:00,70.0,44.0,-100.00,SE,139,0.0,4.0,39,0.00,,,0.00,0.000000,,2013-03-18 06:32:00,
2013-03-17 23:42:00,70.0,44.0,-100.00,SE,139,0.0,4.0,39,0.00,,,0.00,0.000000,,2013-03-18 06:42:00,
2013-03-17 23:52:00,70.0,42.0,-100.00,South,180,4.0,7.0,36,0.00,,,0.00,0.000000,,2013-03-18 06:52:00,